sat.trackr.live / text

‹ back to catalog

UNKNOWN

NORAD 85373

UNKNOWN UNKNOWN UNKNOWN

§ Identity

Operator
Country
Launch date
Launch site
Launch vehicle
Mass (kg)
RCS (m²)

External: N2YO · Heavens-Above

§ Orbital elements

Epoch: 2026-05-21T00:46:03.180864Z

Period
102.80 min
Inclination
100.4203°
Eccentricity
0.0051564
Mean motion
14.00778592 rev/d
Perigee alt
853.6 km
Apogee alt
928.6 km
Semi-major
7,269.2 km
B*
1.0694e-3
RAAN
204.2253°
Arg perigee
177.9959°
Mean anomaly
300.8313°
Rev number
63,442

§ Raw data

UNKNOWN1 85373U          26141.03198126  .00001559  00000+0  10694-2 0  99912 85373 100.4203 204.2253 0051564 177.9959 300.8313 14.00778592634424

JSON: /api/v1/satellites/85373 · /tle

For live sub-satellite position, see the globe view (requires WebGL).

§ Visibility from observer

Set your observer location to see the next 7 days of passes ≥ 10°. The values pass through the URL so the page stays shareable.

No JS? Fill the form by hand. The geolocation button needs JavaScript.